UAL1858 KIAD-KSDF

Flight info

Callsign UAL1858
Flight time N/A
Altitude 36000
Route RNLDI4 OTTTO Q68 YOCKY LEDDL1
Aircraft B739/M-SDE2E3FGHIRWXY/LB1

Departure

Time 2026-05-01 14:55
Airport Washington Dulles International Airport (KIAD)

Arrival

Time N/A
Airport Louisville Muhammad Ali International Airport (KSDF)
Time Latitude Longitude Altitude Speed Heading
2026-05-01 14:00 38.94590 -77.44637 298 ft 0 kts 192°
2026-05-01 14:45 38.94598 -77.44635 298 ft 2 kts 192°
2026-05-01 14:45 38.94613 -77.44631 298 ft 2 kts 192°
2026-05-01 14:46 38.94627 -77.44627 297 ft 2 kts 192°
2026-05-01 14:46 38.94654 -77.44611 297 ft 2 kts 233°
2026-05-01 14:46 38.94661 -77.44594 297 ft 2 kts 261°
2026-05-01 14:47 38.94661 -77.44585 297 ft 0 kts 273°
2026-05-01 14:47 38.94661 -77.44610 297 ft 4 kts 271°
2026-05-01 14:47 38.94661 -77.44625 297 ft 0 kts 271°
2026-05-01 14:49 38.94661 -77.44697 297 ft 10 kts 270°
2026-05-01 14:49 38.94664 -77.44939 296 ft 12 kts 271°
2026-05-01 14:50 38.94665 -77.45074 295 ft 11 kts 271°
2026-05-01 14:50 38.94668 -77.45379 293 ft 14 kts 271°
2026-05-01 14:51 38.94669 -77.45512 292 ft 15 kts 271°
2026-05-01 14:51 38.94504 -77.45611 292 ft 16 kts 180°
2026-05-01 14:52 38.94273 -77.45614 293 ft 17 kts 181°
2026-05-01 14:52 38.94145 -77.45616 293 ft 19 kts 181°
2026-05-01 14:52 38.93875 -77.45618 291 ft 18 kts 184°
2026-05-01 14:53 38.93747 -77.45622 290 ft 18 kts 179°
2026-05-01 14:53 38.93652 -77.45536 288 ft 14 kts 130°
2026-05-01 14:53 38.93583 -77.45500 288 ft 10 kts 199°
2026-05-01 14:53 38.93513 -77.45533 287 ft 10 kts 200°
2026-05-01 14:54 38.93444 -77.45566 286 ft 10 kts 200°
2026-05-01 14:54 38.93384 -77.45596 285 ft 5 kts 202°
2026-05-01 14:54 38.93375 -77.45632 285 ft 4 kts 287°
2026-05-01 14:54 38.93378 -77.45647 285 ft 5 kts 288°
2026-05-01 14:55 38.93462 -77.45933 286 ft 68 kts 291°
2026-05-01 14:55 38.93705 -77.46757 293 ft 128 kts 291°
2026-05-01 14:55 38.94075 -77.48016 395 ft 166 kts 291°
2026-05-01 14:55 38.94483 -77.49384 1003 ft 167 kts 291°
2026-05-01 14:56 38.94604 -77.50899 1451 ft 181 kts 256°
2026-05-01 14:56 38.94095 -77.52332 2177 ft 173 kts 245°
2026-05-01 14:56 38.93616 -77.53809 2469 ft 188 kts 253°
2026-05-01 14:56 38.93233 -77.55471 2775 ft 203 kts 254°
2026-05-01 14:57 38.92823 -77.57295 3179 ft 217 kts 253°
2026-05-01 14:57 38.91915 -77.61185 4063 ft 242 kts 253°
2026-05-01 14:57 38.91412 -77.63310 4464 ft 260 kts 253°
2026-05-01 14:58 38.90877 -77.65565 5327 ft 265 kts 253°
2026-05-01 14:58 38.90341 -77.67826 6323 ft 264 kts 254°
2026-05-01 14:58 38.89810 -77.70046 7317 ft 263 kts 252°
2026-05-01 14:58 38.89066 -77.72192 8226 ft 266 kts 240°
2026-05-01 14:59 38.88021 -77.74104 9196 ft 265 kts 235°
2026-05-01 14:59 38.86894 -77.75954 10141 ft 263 kts 235°
2026-05-01 14:59 38.85755 -77.77850 10730 ft 275 kts 236°
2026-05-01 14:59 38.84598 -77.79845 11207 ft 289 kts 236°
2026-05-01 15:00 38.82116 -77.84215 12180 ft 318 kts 237°
2026-05-01 15:00 38.80786 -77.86585 12629 ft 332 kts 238°
2026-05-01 15:00 38.79623 -77.89193 13063 ft 344 kts 249°
2026-05-01 15:01 38.79069 -77.92181 13479 ft 355 kts 267°
2026-05-01 15:01 38.79306 -77.95342 14180 ft 361 kts 282°
2026-05-01 15:01 38.79990 -77.98460 14914 ft 366 kts 285°
2026-05-01 15:01 38.80750 -78.01545 15742 ft 367 kts 286°
2026-05-01 15:02 38.81538 -78.04679 16475 ft 371 kts 286°
2026-05-01 15:02 38.82061 -78.06760 17073 ft 370 kts 286°
2026-05-01 15:02 38.83100 -78.10933 18027 ft 374 kts 285°
2026-05-01 15:02 38.83885 -78.14110 18829 ft 374 kts 285°
2026-05-01 15:03 38.84615 -78.17298 19560 ft 375 kts 283°
2026-05-01 15:03 38.85154 -78.20564 20208 ft 376 kts 277°
2026-05-01 15:03 38.85419 -78.23890 20880 ft 377 kts 272°
2026-05-01 15:03 38.85499 -78.27251 21547 ft 379 kts 270°
2026-05-01 15:04 38.85496 -78.30607 22168 ft 380 kts 269°
2026-05-01 15:04 38.85464 -78.33994 22920 ft 380 kts 269°
2026-05-01 15:04 38.85298 -78.37395 23440 ft 383 kts 264°
2026-05-01 15:04 38.84907 -78.40753 24095 ft 382 kts 260°
2026-05-01 15:05 38.84395 -78.44086 24689 ft 382 kts 259°
2026-05-01 15:05 38.83837 -78.47412 25189 ft 382 kts 259°
2026-05-01 15:05 38.83263 -78.50750 25640 ft 384 kts 260°
2026-05-01 15:05 38.82692 -78.54070 26192 ft 383 kts 260°
2026-05-01 15:06 38.82123 -78.57389 26664 ft 382 kts 260°
2026-05-01 15:06 38.81560 -78.60708 27241 ft 380 kts 260°
2026-05-01 15:06 38.81011 -78.63975 27847 ft 375 kts 260°
2026-05-01 15:06 38.80468 -78.67209 28604 ft 367 kts 261°
2026-05-01 15:07 38.79932 -78.70397 29366 ft 359 kts 262°
2026-05-01 15:07 38.79413 -78.73494 30131 ft 351 kts 262°
2026-05-01 15:07 38.78901 -78.76559 30559 ft 351 kts 262°
2026-05-01 15:07 38.78389 -78.79632 30913 ft 353 kts 262°
2026-05-01 15:08 38.77875 -78.82717 31293 ft 353 kts 261°
2026-05-01 15:08 38.77359 -78.85802 31762 ft 352 kts 262°
2026-05-01 15:08 38.76845 -78.88862 32185 ft 351 kts 261°
2026-05-01 15:08 38.76337 -78.91897 32641 ft 349 kts 261°
2026-05-01 15:09 38.75827 -78.94933 33035 ft 348 kts 261°
2026-05-01 15:09 38.75318 -78.97952 33390 ft 349 kts 262°
2026-05-01 15:09 38.74805 -79.01010 33645 ft 350 kts 262°
2026-05-01 15:09 38.74292 -79.04052 33969 ft 350 kts 262°
2026-05-01 15:10 38.73775 -79.07111 34145 ft 354 kts 262°
2026-05-01 15:10 38.72730 -79.13249 34762 ft 353 kts 262°
2026-05-01 15:10 38.72209 -79.16309 35032 ft 354 kts 261°
2026-05-01 15:11 38.71688 -79.19355 35287 ft 354 kts 262°
2026-05-01 15:11 38.70633 -79.25545 35885 ft 355 kts 261°
2026-05-01 15:12 38.69608 -79.31724 35967 ft 358 kts 262°
2026-05-01 15:12 38.68088 -79.40994 35959 ft 354 kts 262°
2026-05-01 15:14 38.65542 -79.56369 35953 ft 352 kts 262°
2026-05-01 15:14 38.64008 -79.65546 35959 ft 354 kts 261°
2026-05-01 15:15 38.61869 -79.77841 35961 ft 352 kts 261°
2026-05-01 15:16 38.59655 -79.90037 35956 ft 353 kts 260°
2026-05-01 15:18 38.56905 -80.05254 35958 ft 353 kts 261°
2026-05-01 15:19 38.55611 -80.17549 35976 ft 348 kts 272°
2026-05-01 15:19 38.56110 -80.26740 35970 ft 349 kts 274°
2026-05-01 15:20 38.56614 -80.35960 35965 ft 348 kts 274°
2026-05-01 15:21 38.56921 -80.42120 35964 ft 348 kts 274°
2026-05-01 15:21 38.57223 -80.48258 35961 ft 346 kts 273°
2026-05-01 15:22 38.57654 -80.57477 35965 ft 347 kts 272°
2026-05-01 15:22 38.57370 -80.63593 35961 ft 348 kts 264°
2026-05-01 15:23 38.56260 -80.69727 35965 ft 352 kts 260°
2026-05-01 15:23 38.55057 -80.75743 35963 ft 350 kts 260°
2026-05-01 15:24 38.53874 -80.81733 35968 ft 349 kts 260°
2026-05-01 15:24 38.52693 -80.87798 35970 ft 350 kts 260°
2026-05-01 15:25 38.51525 -80.93778 35976 ft 351 kts 259°
2026-05-01 15:25 38.50342 -80.99836 35979 ft 349 kts 260°
2026-05-01 15:26 38.49171 -81.05823 35972 ft 348 kts 260°
2026-05-01 15:26 38.48001 -81.11777 35971 ft 348 kts 260°
2026-05-01 15:27 38.46820 -81.17769 35971 ft 346 kts 260°
2026-05-01 15:28 38.45051 -81.26708 35976 ft 346 kts 260°
2026-05-01 15:28 38.43866 -81.32661 35979 ft 345 kts 260°
2026-05-01 15:29 38.42092 -81.41575 35982 ft 346 kts 259°
2026-05-01 15:30 38.39728 -81.53400 35974 ft 344 kts 259°
2026-05-01 15:31 38.36151 -81.71125 35976 ft 346 kts 259°
2026-05-01 15:32 38.33477 -81.82793 35977 ft 344 kts 255°
2026-05-01 15:34 38.28543 -81.99931 35978 ft 343 kts 256°